| time (UTC) | temp C | wind direction | speed KPH | gust KPH | rain 1hr cm | rain 24hr cm | rain mn cm | humidity % | barometer mb |
| 20260906164554 | 25 | 61 | 6.4 | 14.5 | 0.00 | 0.00 | 0.00 | 64 | 1021.2 |
| 20260906163050 | 24 | 98 | 6.4 | 14.5 | 0.00 | 0.00 | 0.00 | 66 | 1021.2 |
| 20260906161543 | 24 | 105 | 4.8 | 14.5 | 0.00 | 0.00 | 0.00 | 68 | 1021.3 |
| 20260906160050 | 23 | 92 | 4.8 | 14.5 | 0.00 | 0.00 | 0.00 | 69 | 1021.3 |
| 20260906154539 | 23 | 137 | 3.2 | 11.3 | 0.00 | 0.00 | 0.00 | 72 | 1021.3 |
| 20260906153044 | 23 | 54 | 3.2 | 12.9 | 0.00 | 0.00 | 0.00 | 73 | 1021.4 |
| 20260906151535 | 23 | 87 | 3.2 | 11.3 | 0.00 | 0.00 | 0.00 | 75 | 1021.4 |
| 20260906150047 | 22 | 41 | 3.2 | 11.3 | 0.00 | 0.00 | 0.00 | 77 | 1021.2 |
| 20260906144537 | 22 | 95 | 0.0 | 11.3 | 0.00 | 0.00 | 0.00 | 78 | 1021.1 |
| 20260906143035 | 22 | 90 | 3.2 | 9.7 | 0.00 | 0.00 | 0.00 | 78 | 1021.2 |
| 20260906141536 | 22 | 97 | 3.2 | 9.7 | 0.00 | 0.00 | 0.00 | 79 | 1021.4 |
| 20260906140024 | 21 | 93 | 1.6 | 6.4 | 0.00 | 0.00 | 0.00 | 81 | 1021.4 |
| 20260906134521 | 21 | 97 | 1.6 | 6.4 | 0.00 | 0.00 | 0.00 | 82 | 1021.5 |
| 20260906133017 | 20 | 92 | 4.8 | 9.7 | 0.00 | 0.00 | 0.00 | 86 | 1021.3 |
| 20260906131524 | 19 | 72 | 1.6 | 6.4 | 0.00 | 0.00 | 0.00 | 91 | 1021.3 |
| 20260906130015 | 18 | 56 | 1.6 | 4.8 | 0.00 | 0.00 | 0.00 | 92 | 1021.2 |
| 20260906124508 | 18 | 56 | 3.2 | 6.4 | 0.00 | 0.03 | 0.00 | 93 | 1021.0 |
| 20260906123004 | 17 | 56 | 0.0 | 4.8 | 0.00 | 0.03 | 0.00 | 94 | 1020.8 |
| 20260906121502 | 17 | 57 | 0.0 | 0.0 | 0.00 | 0.03 | 0.00 | 94 | 1021.0 |
| 20260906120105 | 17 | 57 | 0.0 | 0.0 | 0.00 | 0.03 | 0.00 | 94 | 1020.7 |
| 20260906114557 | 16 | 57 | 0.0 | 0.0 | 0.00 | 0.05 | 0.00 | 94 | 1020.5 |
| 20260906113101 | 16 | 57 | 0.0 | 0.0 | 0.00 | 0.05 | 0.00 | 94 | 1020.1 |
| 20260906111554 | 16 | 57 | 0.0 | 0.0 | 0.00 | 0.05 | 0.00 | 93 | 1019.8 |
| 20260906110053 | 16 | 57 | 0.0 | 0.0 | 0.00 | 0.05 | 0.00 | 93 | 1019.7 |
| 20260906104613 | 16 | 58 | 0.0 | 0.0 | 0.00 | 0.05 | 0.00 | 93 | 1019.7 |
| 20260906103052 | 16 | 58 | 0.0 | 0.0 | 0.00 | 0.05 | 0.00 | 93 | 1019.6 |
| 20260906101552 | 16 | 57 | 0.0 | 0.0 | 0.00 | 0.05 | 0.00 | 93 | 1019.9 |
| 20260906100052 | 16 | 57 | 0.0 | 0.0 | 0.00 | 0.05 | 0.00 | 93 | 1019.9 |
| 20260906094622 | 16 | 58 | 0.0 | 0.0 | 0.00 | 0.05 | 0.00 | 92 | 1019.8 |
| 20260906093101 | 16 | 58 | 0.0 | 0.0 | 0.00 | 0.05 | 0.00 | 92 | 1019.5 |
| 20260906091548 | 16 | 58 | 0.0 | 0.0 | 0.00 | 0.05 | 0.00 | 92 | 1019.5 |
| 20260906090047 | 16 | 58 | 0.0 | 0.0 | 0.00 | 0.05 | 0.00 | 92 | 1019.6 |
| 20260906084546 | 16 | 62 | 0.0 | 0.0 | 0.00 | 0.05 | 0.00 | 91 | 1019.5 |
| 20260906083045 | 16 | 62 | 0.0 | 0.0 | 0.00 | 0.05 | 0.00 | 91 | 1019.3 |
| 20260906081553 | 16 | 62 | 0.0 | 0.0 | 0.00 | 0.05 | 0.00 | 91 | 1019.2 |
| 20260906080051 | 16 | 62 | 0.0 | 0.0 | 0.00 | 0.05 | 0.00 | 91 | 1019.1 |
| 20260906074544 | 16 | 62 | 0.0 | 0.0 | 0.00 | 0.05 | 0.00 | 91 | 1019.4 |
| 20260906073042 | 16 | 68 | 0.0 | 0.0 | 0.00 | 0.05 | 0.00 | 91 | 1019.4 |
| 20260906071541 | 16 | 77 | 0.0 | 0.0 | 0.00 | 0.05 | 0.00 | 91 | 1019.2 |
| 20260906070040 | 16 | 74 | 0.0 | 0.0 | 0.00 | 0.05 | 0.00 | 91 | 1019.2 |
| 20260906064539 | 16 | 79 | 0.0 | 0.0 | 0.00 | 0.05 | 0.00 | 90 | 1019.2 |
| 20260906063038 | 16 | 81 | 0.0 | 0.0 | 0.00 | 0.05 | 0.00 | 89 | 1019.0 |
| 20260906061539 | 16 | 65 | 0.0 | 0.0 | 0.00 | 0.05 | 0.00 | 89 | 1019.0 |
| 20260906060034 | 16 | 64 | 0.0 | 0.0 | 0.00 | 0.05 | 0.00 | 89 | 1018.7 |
| 20260906054534 | 16 | 64 | 0.0 | 0.0 | 0.00 | 0.05 | 0.00 | 90 | 1018.7 |
| 20260906053030 | 16 | 64 | 0.0 | 0.0 | 0.00 | 0.05 | 0.00 | 92 | 1018.5 |
| 20260906051529 | 16 | 64 | 0.0 | 0.0 | 0.00 | 0.05 | 0.00 | 92 | 1018.4 |
| 20260906050027 | 16 | 64 | 0.0 | 3.2 | 0.00 | 0.05 | 0.00 | 92 | 1018.3 |
| 20260906044530 | 16 | 64 | 0.0 | 0.0 | 0.00 | 0.05 | 0.05 | 91 | 1018.3 |
| 20260906043024 | 16 | 63 | 0.0 | 0.0 | 0.00 | 0.05 | 0.05 | 91 | 1018.3 |
| 20260906041522 | 17 | 63 | 0.0 | 0.0 | 0.00 | 0.05 | 0.05 | 91 | 1018.1 |
| 20260906040025 | 17 | 63 | 0.0 | 0.0 | 0.00 | 0.05 | 0.05 | 91 | 1018.1 |
| 20260906034519 | 17 | 62 | 0.0 | 0.0 | 0.00 | 0.05 | 0.05 | 90 | 1018.1 |
| 20260906033017 | 17 | 62 | 0.0 | 0.0 | 0.00 | 0.05 | 0.05 | 90 | 1017.8 |
| 20260906031526 | 17 | 63 | 0.0 | 0.0 | 0.00 | 0.05 | 0.05 | 89 | 1017.9 |
| 20260906030013 | 18 | 63 | 0.0 | 0.0 | 0.00 | 0.05 | 0.05 | 88 | 1017.8 |
| 20260906024510 | 18 | 63 | 0.0 | 0.0 | 0.00 | 0.05 | 0.05 | 87 | 1017.7 |
| 20260906023005 | 19 | 62 | 0.0 | 0.0 | 0.00 | 0.05 | 0.05 | 84 | 1017.8 |
| 20260906021505 | 20 | 62 | 0.0 | 0.0 | 0.00 | 0.05 | 0.05 | 83 | 1017.7 |
| 20260906020004 | 20 | 62 | 0.0 | 1.6 | 0.00 | 0.05 | 0.05 | 82 | 1017.7 |
| 20260906014504 | 21 | 62 | 0.0 | 0.0 | 0.00 | 0.05 | 0.05 | 82 | 1017.7 |
| 20260906013002 | 21 | 61 | 0.0 | 0.0 | 0.00 | 0.05 | 0.05 | 82 | 1017.5 |
| 20260906011506 | 21 | 60 | 0.0 | 3.2 | 0.00 | 0.05 | 0.05 | 82 | 1017.6 |
| 20260906010001 | 21 | 60 | 1.6 | 8.0 | 0.00 | 0.05 | 0.05 | 81 | 1017.5 |
| 20260906004604 | 21 | 45 | 4.8 | 8.0 | 0.00 | 0.05 | 0.05 | 80 | 1017.4 |
| 20260906003102 | 22 | 56 | 3.2 | 9.7 | 0.00 | 0.05 | 0.05 | 78 | 1017.3 |
| 20260906001612 | 22 | 56 | 1.6 | 8.0 | 0.00 | 0.05 | 0.05 | 77 | 1017.4 |
| 20260906000100 | 22 | 78 | 1.6 | 12.9 | 0.00 | 0.05 | 0.05 | 76 | 1017.3 |
| 20260905234600 | 22 | 37 | 3.2 | 16.1 | 0.00 | 0.05 | 0.05 | 74 | 1017.4 |
| 20260905233110 | 23 | 58 | 6.4 | 17.7 | 0.00 | 0.05 | 0.05 | 74 | 1017.4 |
| 20260905231558 | 23 | 37 | 9.7 | 17.7 | 0.00 | 0.05 | 0.05 | 72 | 1017.5 |
| 20260905230058 | 23 | 359 | 8.0 | 22.5 | 0.00 | 0.05 | 0.05 | 72 | 1017.7 |
| 20260905224606 | 23 | 10 | 3.2 | 17.7 | 0.00 | 0.05 | 0.05 | 72 | 1017.5 |
| 20260905223057 | 23 | 11 | 8.0 | 16.1 | 0.00 | 0.05 | 0.05 | 70 | 1017.4 |
| 20260905221600 | 24 | 11 | 6.4 | 14.5 | 0.00 | 0.05 | 0.05 | 69 | 1017.2 |
| 20260905214554 | 23 | 20 | 9.7 | 20.9 | 0.00 | 0.05 | 0.05 | 69 | 1017.3 |
| 20260905213100 | 24 | 12 | 8.0 | 19.3 | 0.00 | 0.05 | 0.05 | 69 | 1017.3 |
| 20260905211554 | 23 | 37 | 8.0 | 16.1 | 0.00 | 0.05 | 0.05 | 72 | 1017.4 |
| 20260905210107 | 23 | 349 | 6.4 | 14.5 | 0.00 | 0.05 | 0.05 | 72 | 1017.4 |
| 20260905204552 | 23 | 81 | 4.8 | 17.7 | 0.00 | 0.05 | 0.05 | 72 | 1017.3 |
| 20260905203054 | 23 | 359 | 8.0 | 17.7 | 0.00 | 0.05 | 0.05 | 74 | 1017.2 |
| 20260905201557 | 24 | 87 | 8.0 | 17.7 | 0.00 | 0.05 | 0.05 | 74 | 1017.1 |
| 20260905200100 | 23 | 4 | 6.4 | 17.7 | 0.00 | 0.05 | 0.05 | 77 | 1017.2 |
| 20260905194547 | 23 | 16 | 9.7 | 19.3 | 0.00 | 0.05 | 0.05 | 77 | 1017.3 |
| 20260905193045 | 23 | 35 | 8.0 | 17.7 | 0.00 | 0.05 | 0.05 | 79 | 1017.3 |
| 20260905191544 | 23 | 11 | 8.0 | 16.1 | 0.00 | 0.05 | 0.05 | 79 | 1017.2 |
| 20260905190042 | 23 | 72 | 8.0 | 16.1 | 0.00 | 0.05 | 0.05 | 81 | 1017.3 |
| 20260905184540 | 23 | 25 | 6.4 | 16.1 | 0.00 | 0.05 | 0.05 | 83 | 1017.4 |
| 20260905183038 | 22 | 58 | 3.2 | 12.9 | 0.00 | 0.05 | 0.05 | 83 | 1017.4 |
| 20260905181538 | 22 | 50 | 9.7 | 19.3 | 0.00 | 0.05 | 0.05 | 83 | 1017.3 |
| 20260905180037 | 22 | 44 | 3.2 | 14.5 | 0.00 | 0.05 | 0.05 | 84 | 1017.3 |
| 20260905174533 | 22 | 32 | 8.0 | 19.3 | 0.00 | 0.05 | 0.05 | 84 | 1017.4 |
| 20260905173037 | 22 | 56 | 4.8 | 12.9 | 0.00 | 0.05 | 0.05 | 85 | 1017.4 |
| 20260905171546 | 21 | 49 | 4.8 | 16.1 | 0.00 | 0.05 | 0.05 | 87 | 1017.4 |
| 20260905170033 | 21 | 69 | 9.7 | 16.1 | 0.00 | 0.05 | 0.05 | 87 | 1017.7 |